,,PA_Meas_PMT16A,,PR_Meas_QMR101_102,,RH_Meas_QMH101,,SR_Meas_QMS101,,TA_Meas_QMH101,,GenWind,,GenWind,
time,status,PA,status,PR,status,RH,status,SR,status,TA,status,DirAvg,status,SpdAvg,
2015-03-29, 00:00:04,VALID,918.444,VALID,0,VALID,87.4101,VALID,0,VALID,21.0291,VALID,122,VALID,0,
2015-03-29, 00:01:04,VALID,918.394,VALID,0,VALID,87.2424,VALID,0,VALID,21.0681,VALID,135,VALID,0,
2015-03-29, 00:02:04,VALID,918.389,VALID,0,VALID,87.2424,VALID,0,VALID,21.1071,VALID,146,VALID,0,
2015-03-29, 00:03:04,VALID,918.371,VALID,0,VALID,87.189,VALID,0,VALID,21.0876,VALID,140,VALID,0,
2015-03-29, 00:04:04,VALID,918.372,VALID,0,VALID,87.4406,VALID,0,VALID,21.0486,VALID,148,VALID,0,
2015-03-29, 00:05:04,VALID,918.359,VALID,0,VALID,87.5473,VALID,0,VALID,21.047,VALID,151,VALID,1.35625,
2015-03-29, 00:06:04,VALID,918.336,VALID,0,VALID,87.6007,VALID,0,VALID,21.0681,VALID,168,VALID,1.16797,
2015-03-29, 00:07:04,VALID,918.332,VALID,0,VALID,87.6388,VALID,0,VALID,21.0681,VALID,179,VALID,1.21953,
2015-03-29, 00:08:04,VALID,918.361,VALID,0,VALID,87.4558,VALID,0,VALID,21.086,VALID,178,VALID,1.93438,
2015-03-29, 00:09:04,VALID,918.36,VALID,0,VALID,87.372,VALID,0,VALID,21.1055,VALID,168,VALID,1.14336,
2015-03-29, 00:10:04,VALID,918.349,VALID,0,VALID,87.1433,VALID,0,VALID,21.164,VALID,200,VALID,0.935156,
2015-03-29, 00:11:04,VALID,918.339,VALID,0,VALID,87.189,VALID,0,VALID,21.2047,VALID,176,VALID,0.130859,
2015-03-29, 00:12:04,VALID,918.353,VALID,0,VALID,87.2271,VALID,0,VALID,21.2047,VALID,145,VALID,0.769531,
2015-03-29, 00:13:04,VALID,918.33,VALID,0,VALID,87.189,VALID,0,VALID,21.1852,VALID,121,VALID,1.23203,
2015-03-29, 00:14:04,VALID,918.3,VALID,0,VALID,87.4634,VALID,0,VALID,21.2047,VALID,116,VALID,0.776172,
2015-03-29, 00:15:04,VALID,918.259,VALID,0,VALID,87.7455,VALID,0,VALID,21.1657,VALID,108,VALID,0.647266,
2015-03-29, 00:16:04,VALID,918.206,VALID,0,VALID,88.0428,VALID,0,VALID,21.1071,VALID,107,VALID,0,
2015-03-29, 00:17:04,VALID,918.167,VALID,0,VALID,88.4164,VALID,0,VALID,21.0096,VALID,107,VALID,0,
2015-03-29, 00:18:04,VALID,918.131,VALID,0,VALID,88.8128,VALID,0,VALID,20.9495,VALID,107,VALID,0,
2015-03-29, 00:19:04,VALID,918.092,VALID,0,VALID,89.1482,VALID,0,VALID,20.912,VALID,107,VALID,0,
2015-03-29, 00:20:04,VALID,918.091,VALID,0,VALID,89.5065,VALID,0,VALID,20.834,VALID,107,VALID,0,
2015-03-29, 00:21:04,VALID,918.084,VALID,0,VALID,89.8115,VALID,0,VALID,20.795,VALID,107,VALID,0,
2015-03-29, 00:22:04,VALID,918.059,VALID,0,VALID,89.9182,VALID,0,VALID,20.7544,VALID,108,VALID,0,
2015-03-29, 00:23:04,VALID,918.018,VALID,0,VALID,89.6971,VALID,0,VALID,20.7934,VALID,114,VALID,0,
2015-03-29, 00:24:04,VALID,917.952,VALID,0,VALID,89.3846,VALID,0,VALID,20.8519,VALID,134,VALID,0.495703,
2015-03-29, 00:25:04,VALID,917.893,VALID,0,VALID,89.0263,VALID,0,VALID,20.93,VALID,133,VALID,1.23086,
2015-03-29, 00:26:04,VALID,917.886,VALID,0,VALID,88.6832,VALID,0,VALID,20.969,VALID,135,VALID,1.43984,
2015-03-29, 00:27:04,VALID,917.814,VALID,0,VALID,88.3325,VALID,0,VALID,21.0486,VALID,132,VALID,1.87773,
2015-03-29, 00:28:04,VALID,917.769,VALID,0,VALID,88.2715,VALID,0,VALID,21.047,VALID,142,VALID,1.89648,
2015-03-29, 07:51:04,VALID,918.024,VALID,0,VALID,86.6401,VALID,75.4237,VALID,21.4567,VALID,136,VALID,0,
2015-03-29, 07:52:04,VALID,918.017,VALID,0,VALID,86.6782,VALID,80.2585,VALID,21.4762,VALID,136,VALID,0,
2015-03-29, 07:53:04,VALID,918.036,VALID,0,VALID,86.9527,VALID,84.3413,VALID,21.4957,VALID,136,VALID,0,
2015-03-29, 07:54:04,VALID,918.013,VALID,0,VALID,87.0442,VALID,91.2175,VALID,21.5559,VALID,110,VALID,0,
2015-03-29, 07:55:04,VALID,918.009,VALID,0,VALID,87.4787,VALID,99.0607,VALID,21.5542,VALID,84,VALID,0,
2015-03-29, 07:56:04,VALID,918.02,VALID,0,VALID,86.846,VALID,105.4,VALID,21.5737,VALID,131,VALID,0,
2015-03-29, 07:57:04,VALID,918.005,VALID,0,VALID,86.8002,VALID,110.664,VALID,21.6339,VALID,130,VALID,0,
2015-03-29, 07:58:04,VALID,918.024,VALID,0,VALID,87.4253,VALID,112.598,VALID,21.6713,VALID,106,VALID,0,
2015-03-29, 07:59:04,VALID,918.06,VALID,0,VALID,86.7621,VALID,119.26,VALID,21.7103,VALID,106,VALID,0,
2015-03-29, 08:00:04,VALID,918.091,VALID,0,VALID,86.9984,VALID,170.831,VALID,21.7688,VALID,106,VALID,0,
2015-03-29, 08:01:04,VALID,918.131,VALID,0,VALID,87.715,VALID,192.212,VALID,21.8469,VALID,106,VALID,0,
2015-03-29, 08:02:04,VALID,918.172,VALID,0,VALID,87.8218,VALID,187.915,VALID,21.9835,VALID,106,VALID,0,
2015-03-29, 08:03:04,VALID,918.208,VALID,0,VALID,86.4343,VALID,261.404,VALID,22.042,VALID,106,VALID,0,
2015-03-29, 08:04:04,VALID,918.28,VALID,0,VALID,85.7558,VALID,269.14,VALID,22.1396,VALID,135,VALID,0,
2015-03-29, 08:05:04,VALID,918.296,VALID,0,VALID,83.9491,VALID,286.331,VALID,22.2371,VALID,135,VALID,0,
2015-03-29, 08:06:04,VALID,918.33,VALID,0,VALID,83.7585,VALID,266.024,VALID,22.3737,VALID,135,VALID,0,
2015-03-29, 08:07:04,VALID,918.398,VALID,0,VALID,83.0571,VALID,299.224,VALID,22.5884,VALID,165,VALID,0,
2015-03-29, 08:08:04,VALID,918.411,VALID,0,VALID,82.2795,VALID,180.394,VALID,22.7055,VALID,201,VALID,0,
2015-03-29, 08:09:04,VALID,918.425,VALID,0,VALID,82.0051,VALID,173.195,VALID,22.7836,VALID,201,VALID,0,
2015-03-29, 08:10:04,VALID,918.401,VALID,0,VALID,81.9746,VALID,183.402,VALID,22.725,VALID,201,VALID,0,
2015-03-29, 08:11:04,VALID,918.41,VALID,0,VALID,82.5616,VALID,181.253,VALID,22.647,VALID,201,VALID,0,
2015-03-29, 08:12:04,VALID,918.423,VALID,0,VALID,83.0419,VALID,328.018,VALID,22.5884,VALID,201,VALID,0,
2015-03-29, 08:13:04,VALID,918.4,VALID,0,VALID,83.3239,VALID,353.267,VALID,22.5689,VALID,201,VALID,0,
2015-03-29, 08:14:04,VALID,918.447,VALID,0,VALID,83.4078,VALID,386.466,VALID,22.6079,VALID,201,VALID,0,
2015-03-29, 08:15:04,VALID,918.442,VALID,0,VALID,82.5387,VALID,417.731,VALID,22.6062,VALID,201,VALID,0,
2015-03-29, 08:16:04,VALID,918.444,VALID,0,VALID,82.8589,VALID,435.889,VALID,22.6452,VALID,201,VALID,0,
2015-03-29, 08:17:04,VALID,918.449,VALID,0,VALID,82.5845,VALID,455.121,VALID,22.7038,VALID,186,VALID,0,
2015-03-29, 08:18:04,VALID,918.493,VALID,0,VALID,82.4472,VALID,464.253,VALID,22.8599,VALID,132,VALID,0.0132813,
2015-03-29, 08:19:04,VALID,918.513,VALID,0,VALID,80.9302,VALID,481.766,VALID,23.1349,VALID,173,VALID,1.20156,
2015-03-29, 08:20:04,VALID,918.541,VALID,0,VALID,79.497,VALID,482.948,VALID,23.4082,VALID,131,VALID,0.651953,
2015-03-29, 08:21:04,VALID,918.527,VALID,0,VALID,79.2683,VALID,469.625,VALID,23.6406,VALID,153,VALID,0.995703,
2015-03-29, 08:22:04,VALID,918.547,VALID,0,VALID,78.2162,VALID,366.267,VALID,23.9158,VALID,119,VALID,1.26992,
2015-03-29, 08:23:04,VALID,918.572,VALID,0,VALID,76.3409,VALID,312.761,VALID,23.8749,VALID,125,VALID,1.31953,
2015-03-29, 08:24:04,VALID,918.585,VALID,0,VALID,75.3498,VALID,389.689,VALID,23.953,VALID,195,VALID,1.18945,
2015-03-29, 08:25:04,VALID,918.577,VALID,0,VALID,73.5812,VALID,245.825,VALID,24.0506,VALID,181,VALID,0.321484,
2015-03-29, 08:26:04,VALID,918.569,VALID,0,VALID,75.8759,VALID,405.805,VALID,24.0506,VALID,155,VALID,0.503516,
2015-03-29, 08:27:04,VALID,918.576,VALID,0,VALID,75.1821,VALID,218.428,VALID,24.1696,VALID,176,VALID,0,
2015-03-29, 08:28:04,VALID,918.6,VALID,0,VALID,76.7144,VALID,256.784,VALID,24.0896,VALID,153,VALID,0,
2015-03-29, 08:29:04,VALID,918.652,VALID,0,VALID,75.2126,VALID,238.304,VALID,23.953,VALID,183,VALID,0.0949219,
2015-03-29, 08:30:04,VALID,918.672,VALID,0,VALID,75.4718,VALID,222.296,VALID,23.7578,VALID,145,VALID,0.0539063,
2015-03-29, 08:31:04,VALID,918.718,VALID,0,VALID,75.8606,VALID,212.089,VALID,23.5626,VALID,154,VALID,0.194141,
2015-03-29, 08:32:04,VALID,918.73,VALID,0,VALID,78.0714,VALID,208.436,VALID,23.3088,VALID,139,VALID,0,
2015-03-29, 08:33:04,VALID,918.738,VALID,0,VALID,78.8185,VALID,213.593,VALID,23.1899,VALID,168,VALID,1.22227,
2015-03-29, 08:34:04,VALID,918.732,VALID,0,VALID,79.6952,VALID,234.544,VALID,23.1509,VALID,134,VALID,0.00429688,
2015-03-29, 08:35:04,VALID,918.732,VALID,0,VALID,77.8808,VALID,236.478,VALID,23.1527,VALID,152,VALID,0,
2015-03-29, 08:36:04,VALID,918.709,VALID,0,VALID,79.0091,VALID,220.362,VALID,23.2094,VALID,151,VALID,0,
2015-03-29, 08:37:04,VALID,918.673,VALID,0,VALID,78.91,VALID,204.998,VALID,23.3088,VALID,152,VALID,0,
2015-03-29, 08:38:04,VALID,918.666,VALID,0,VALID,79.0091,VALID,207.147,VALID,23.3283,VALID,139,VALID,0,
2015-03-29, 08:39:04,VALID,918.653,VALID,0,VALID,76.7525,VALID,200.27,VALID,23.3265,VALID,88,VALID,0,
2015-03-29, 08:40:04,VALID,918.615,VALID,0,VALID,78.7728,VALID,200.915,VALID,23.3088,VALID,72,VALID,0,
2015-03-29, 08:41:04,VALID,918.63,VALID,0,VALID,79.3064,VALID,240.024,VALID,23.3674,VALID,59,VALID,0,
2015-03-29, 08:42:04,VALID,918.59,VALID,0,VALID,78.91,VALID,252.809,VALID,23.465,VALID,61,VALID,0,
2015-03-29, 08:43:04,VALID,918.583,VALID,0,VALID,79.2302,VALID,367.126,VALID,23.504,VALID,93,VALID,0,
2015-03-29, 08:44:04,VALID,918.587,VALID,0,VALID,76.7221,VALID,405.698,VALID,23.543,VALID,124,VALID,0,
2015-03-29, 08:45:04,VALID,918.539,VALID,0,VALID,74.8924,VALID,328.77,VALID,23.6388,VALID,124,VALID,0,
2015-03-29, 08:46:04,VALID,918.536,VALID,0,VALID,75.1135,VALID,250.875,VALID,23.8163,VALID,124,VALID,0,
2015-03-29, 08:47:04,VALID,918.566,VALID,0,VALID,75.5404,VALID,243.462,VALID,23.8926,VALID,124,VALID,0,
2015-03-29, 08:48:04,VALID,918.564,VALID,0,VALID,75.2507,VALID,299.224,VALID,24.0311,VALID,126,VALID,0,
2015-03-29, 08:49:04,VALID,918.55,VALID,0,VALID,74.9763,VALID,411.822,VALID,23.9316,VALID,159,VALID,0,
2015-03-29, 08:50:04,VALID,918.571,VALID,0,VALID,75.2965,VALID,381.524,VALID,24.0292,VALID,158,VALID,0,
2015-03-29, 08:51:04,VALID,918.561,VALID,0,VALID,74.3512,VALID,373.788,VALID,24.2477,VALID,158,VALID,0,
2015-03-29, 08:52:04,VALID,918.551,VALID,0,VALID,74.5113,VALID,294.819,VALID,24.2068,VALID,157,VALID,0,
2015-03-29, 08:53:04,VALID,918.536,VALID,0,VALID,75.0525,VALID,248.834,VALID,24.2068,VALID,158,VALID,0,
2015-03-29, 08:54:04,VALID,918.537,VALID,0,VALID,75.7386,VALID,222.403,VALID,24.2654,VALID,159,VALID,0,
2015-03-29, 08:55:04,VALID,918.539,VALID,0,VALID,75.1669,VALID,241.635,VALID,24.2263,VALID,134,VALID,0,
2015-03-29, 08:56:04,VALID,918.52,VALID,0,VALID,76.196,VALID,233.04,VALID,24.0506,VALID,135,VALID,0,
2015-03-29, 08:57:04,VALID,918.537,VALID,0,VALID,76.4019,VALID,233.47,VALID,24.0311,VALID,135,VALID,0,
2015-03-29, 08:58:04,VALID,918.503,VALID,0,VALID,75.792,VALID,232.61,VALID,24.0896,VALID,72,VALID,0.819531,
2015-03-29, 08:59:04,VALID,918.524,VALID,0,VALID,75.7158,VALID,272.363,VALID,24.0115,VALID,62,VALID,1.29844,
2015-03-29, 09:00:04,VALID,918.508,VALID,0,VALID,75.6853,VALID,263.875,VALID,23.8944,VALID,62,VALID,1.16094,
2015-03-29, 09:01:04,VALID,918.554,VALID,0,VALID,76.5696,VALID,367.664,VALID,23.8163,VALID,74,VALID,0.444922,
2015-03-29, 09:02:04,VALID,918.571,VALID,0,VALID,77.3777,VALID,262.801,VALID,23.953,VALID,68,VALID,0,
2015-03-29, 09:03:04,VALID,918.592,VALID,0,VALID,76.8974,VALID,290.843,VALID,24.1092,VALID,66,VALID,0,
2015-03-29, 09:04:04,VALID,918.626,VALID,0,VALID,74.0615,VALID,603.39,VALID,24.1482,VALID,47,VALID,0,
2015-03-29, 09:05:04,VALID,918.639,VALID,0,VALID,74.6332,VALID,605.646,VALID,24.3026,VALID,47,VALID,0,
2015-03-29, 09:06:04,VALID,918.666,VALID,0,VALID,75.6853,VALID,238.519,VALID,24.5564,VALID,47,VALID,0,
2015-03-29, 09:07:04,VALID,918.655,VALID,0,VALID,74.0157,VALID,230.139,VALID,24.6345,VALID,102,VALID,0,
2015-03-29, 09:08:04,VALID,918.693,VALID,0,VALID,72.7884,VALID,233.899,VALID,24.4606,VALID,105,VALID,0,
2015-03-29, 09:09:04,VALID,918.702,VALID,0,VALID,73.6041,VALID,245.825,VALID,24.3239,VALID,105,VALID,0,
2015-03-29, 09:10:04,VALID,918.719,VALID,0,VALID,74.3283,VALID,272.578,VALID,24.2049,VALID,105,VALID,0,
2015-03-29, 09:11:04,VALID,918.743,VALID,0,VALID,76.6916,VALID,324.902,VALID,23.9707,VALID,111,VALID,1.4625,
2015-03-29, 09:12:04,VALID,918.741,VALID,0,VALID,77.3853,VALID,321.679,VALID,23.8926,VALID,120,VALID,0.703516,
2015-03-29, 09:13:04,VALID,918.738,VALID,0,VALID,75.9216,VALID,642.391,VALID,23.9335,VALID,120,VALID,1.11367,
2015-03-29, 09:14:04,VALID,918.737,VALID,0,VALID,78.4068,VALID,322.753,VALID,24.1073,VALID,119,VALID,0.50625,
2015-03-29, 09:15:04,VALID,918.749,VALID,0,VALID,74.5036,VALID,317.918,VALID,24.2226,VALID,74,VALID,0,
2015-03-29, 09:16:04,VALID,918.767,VALID,0,VALID,73.5431,VALID,316.092,VALID,24.2049,VALID,66,VALID,0,
2015-03-29, 09:17:04,VALID,918.737,VALID,0,VALID,75.022,VALID,262.694,VALID,24.2049,VALID,48,VALID,0,
2015-03-29, 09:18:04,VALID,918.734,VALID,0,VALID,75.9445,VALID,270,VALID,24.1445,VALID,27,VALID,0.167578,
2015-03-29, 09:19:04,VALID,918.766,VALID,0,VALID,77.0499,VALID,282.893,VALID,24.2049,VALID,114,VALID,0.0625,
2015-03-29, 09:20:04,VALID,918.747,VALID,0,VALID,75.4871,VALID,267.421,VALID,24.2245,VALID,193,VALID,0.828125,
2015-03-29, 09:21:04,VALID,918.767,VALID,0,VALID,74.9534,VALID,273.438,VALID,24.244,VALID,193,VALID,0.832812,
2015-03-29, 09:22:04,VALID,918.756,VALID,0,VALID,75.6853,VALID,289.124,VALID,24.2654,VALID,112,VALID,1.01563,
2015-03-29, 09:23:04,VALID,918.769,VALID,0,VALID,74.9687,VALID,308.249,VALID,24.1854,VALID,89,VALID,1.17852,
2015-03-29, 09:24:04,VALID,918.777,VALID,0,VALID,76.1503,VALID,336.291,VALID,24.1482,VALID,79,VALID,0.638672,
2015-03-29, 09:25:04,VALID,918.776,VALID,0,VALID,77.1947,VALID,327.481,VALID,24.2263,VALID,79,VALID,0.516016,
2015-03-29, 09:26:04,VALID,918.737,VALID,0,VALID,76.2342,VALID,390.011,VALID,24.2635,VALID,108,VALID,0.891016,
2015-03-29, 09:27:04,VALID,918.755,VALID,0,VALID,74.5875,VALID,354.341,VALID,24.3416,VALID,181,VALID,1.0582,
2015-03-29, 09:28:04,VALID,918.687,VALID,0,VALID,74.0691,VALID,469.088,VALID,24.4392,VALID,182,VALID,0.520312,
2015-03-29, 09:29:04,VALID,918.689,VALID,0,VALID,75.9292,VALID,300.513,VALID,24.6345,VALID,181,VALID,0,
2015-03-29, 09:30:04,VALID,918.649,VALID,0,VALID,75.0373,VALID,412.359,VALID,24.5759,VALID,193,VALID,1.28984,
2015-03-29, 09:31:04,VALID,918.629,VALID,0,VALID,73.0933,VALID,753.27,VALID,24.693,VALID,187,VALID,1.06797,
2015-03-29, 09:32:04,VALID,918.626,VALID,0,VALID,73.4516,VALID,721.682,VALID,24.8297,VALID,122,VALID,1.31133,
2015-03-29, 09:33:04,VALID,918.617,VALID,0,VALID,72.7808,VALID,669.896,VALID,24.9469,VALID,172,VALID,1.04648,
2015-03-29, 09:34:04,VALID,918.622,VALID,0,VALID,73.6117,VALID,681.177,VALID,25.064,VALID,116,VALID,0.866797,
2015-03-29, 09:35:04,VALID,918.64,VALID,0,VALID,72.5825,VALID,540.751,VALID,25.316,VALID,114,VALID,0.289063,
2015-03-29, 09:36:04,VALID,918.663,VALID,0,VALID,71.5153,VALID,280.851,VALID,25.2965,VALID,116,VALID,0.779688,
2015-03-29, 09:37:04,VALID,918.641,VALID,0,VALID,74.2444,VALID,305.24,VALID,25.1402,VALID,109,VALID,1.26094,
2015-03-29, 09:38:04,VALID,918.697,VALID,0,VALID,71.1341,VALID,333.927,VALID,25.0036,VALID,84,VALID,1.58984,
2015-03-29, 09:39:04,VALID,918.711,VALID,0,VALID,74.3817,VALID,324.58,VALID,24.8083,VALID,83,VALID,0.986719,
2015-03-29, 09:40:04,VALID,918.713,VALID,0,VALID,74.2978,VALID,335.324,VALID,24.7497,VALID,70,VALID,1.48477,
2015-03-29, 09:41:04,VALID,918.764,VALID,0,VALID,75.8073,VALID,270.429,VALID,24.6307,VALID,70,VALID,0.725781,
2015-03-29, 09:42:04,VALID,918.746,VALID,0,VALID,74.8467,VALID,264.842,VALID,24.6326,VALID,148,VALID,1.25469,
2015-03-29, 09:43:04,VALID,918.738,VALID,0,VALID,76.4095,VALID,267.314,VALID,24.7321,VALID,136,VALID,0,
2015-03-29, 09:44:04,VALID,918.711,VALID,0,VALID,74.0996,VALID,261.404,VALID,24.7907,VALID,138,VALID,0,
2015-03-29, 09:45:04,VALID,918.709,VALID,0,VALID,73.8023,VALID,251.735,VALID,24.8474,VALID,135,VALID,0,
2015-03-29, 09:46:04,VALID,918.711,VALID,0,VALID,73.787,VALID,241.098,VALID,24.9078,VALID,135,VALID,0,
2015-03-29, 09:47:04,VALID,918.702,VALID,0,VALID,74.6409,VALID,232.073,VALID,24.8474,VALID,107,VALID,0,
2015-03-29, 09:48:04,VALID,918.709,VALID,0,VALID,75.4794,VALID,235.833,VALID,24.8083,VALID,106,VALID,0,
2015-03-29, 09:49:04,VALID,918.673,VALID,0,VALID,73.444,VALID,260.652,VALID,24.8669,VALID,108,VALID,0,
2015-03-29, 09:50:04,VALID,918.667,VALID,0,VALID,73.1467,VALID,318.241,VALID,24.8883,VALID,65,VALID,0.608203,
2015-03-29, 09:51:04,VALID,918.636,VALID,0,VALID,74.4045,VALID,406.665,VALID,24.8883,VALID,48,VALID,0,
2015-03-29, 09:52:04,VALID,918.626,VALID,0,VALID,73.6879,VALID,354.878,VALID,24.984,VALID,57,VALID,1.08828,
2015-03-29, 09:53:04,VALID,918.652,VALID,0,VALID,74.8238,VALID,325.332,VALID,25.0231,VALID,53,VALID,1.32422,
2015-03-29, 09:54:04,VALID,918.641,VALID,0,VALID,72.979,VALID,296.215,VALID,24.984,VALID,60,VALID,1.36836,
2015-03-29, 09:55:04,VALID,918.646,VALID,0,VALID,70.5471,VALID,291.918,VALID,24.8102,VALID,115,VALID,1.67695,
2015-03-29, 09:56:04,VALID,918.642,VALID,0,VALID,73.1467,VALID,307.604,VALID,24.6149,VALID,121,VALID,1.2875,
2015-03-29, 09:57:04,VALID,918.642,VALID,0,VALID,74.9992,VALID,389.904,VALID,24.5954,VALID,122,VALID,0.442578,
2015-03-29, 09:58:04,VALID,918.64,VALID,0,VALID,74.7247,VALID,338.869,VALID,24.7321,VALID,145,VALID,0.893359,
2015-03-29, 09:59:04,VALID,918.667,VALID,0,VALID,73.8099,VALID,364.225,VALID,24.6345,VALID,84,VALID,2.03008,
2015-03-29, 10:00:04,VALID,918.658,VALID,0,VALID,74.1987,VALID,384.317,VALID,24.574,VALID,34,VALID,1.43164,
2015-03-29, 10:01:04,VALID,918.695,VALID,0,VALID,74.6942,VALID,409.243,VALID,24.7302,VALID,24,VALID,0.507813,
2015-03-29, 10:02:04,VALID,918.685,VALID,0,VALID,73.4135,VALID,416.979,VALID,24.945,VALID,24,VALID,0,
2015-03-29, 10:03:04,VALID,918.686,VALID,0,VALID,72.392,VALID,417.624,VALID,25.1207,VALID,53,VALID,1.6418,
2015-03-29, 10:04:04,VALID,918.676,VALID,0,VALID,72.1785,VALID,410.962,VALID,25.0426,VALID,115,VALID,1.01406,
2015-03-29, 10:05:04,VALID,918.607,VALID,0,VALID,73.3144,VALID,395.813,VALID,24.9469,VALID,76,VALID,0.777734,
2015-03-29, 10:06:04,VALID,918.682,VALID,0,VALID,71.5458,VALID,382.92,VALID,24.945,VALID,142,VALID,0.513672,
2015-03-29, 10:07:04,VALID,918.667,VALID,0,VALID,71.9727,VALID,374.647,VALID,24.8883,VALID,147,VALID,1.66523,
2015-03-29, 10:08:04,VALID,918.633,VALID,0,VALID,73.7413,VALID,375.507,VALID,24.8278,VALID,122,VALID,1.47461,
2015-03-29, 10:09:04,VALID,918.638,VALID,0,VALID,70.6081,VALID,387.11,VALID,24.8278,VALID,80,VALID,0.0417969,
2015-03-29, 10:10:04,VALID,918.599,VALID,0,VALID,73.6803,VALID,405.375,VALID,24.7693,VALID,62,VALID,1.12812,
2015-03-29, 10:11:04,VALID,918.644,VALID,0,VALID,74.214,VALID,432.773,VALID,24.8083,VALID,45,VALID,0.0136719,
2015-03-29, 10:12:04,VALID,918.631,VALID,0,VALID,74.4045,VALID,612.307,VALID,24.7888,VALID,114,VALID,0,
2015-03-29, 10:13:04,VALID,918.614,VALID,0,VALID,75.2507,VALID,705.459,VALID,24.8278,VALID,116,VALID,0.0992187,
2015-03-29, 10:14:04,VALID,918.633,VALID,0,VALID,71.2256,VALID,554.826,VALID,24.8474,VALID,129,VALID,0.0121094,
2015-03-29, 10:15:04,VALID,918.638,VALID,0,VALID,70.4327,VALID,483.485,VALID,24.9645,VALID,145,VALID,0,
2015-03-29, 10:16:04,VALID,918.64,VALID,0,VALID,70.9816,VALID,401.078,VALID,25.1598,VALID,75,VALID,0.642969,
2015-03-29, 10:17:04,VALID,918.613,VALID,0,VALID,71.622,VALID,351.44,VALID,25.2183,VALID,32,VALID,2.26641,
2015-03-29, 10:18:04,VALID,918.661,VALID,0,VALID,72.9027,VALID,313.513,VALID,25.1598,VALID,47,VALID,1.36445,
2015-03-29, 10:19:04,VALID,918.671,VALID,0,VALID,71.2103,VALID,281.066,VALID,25.1988,VALID,143,VALID,1.02578,
2015-03-29, 10:20:04,VALID,918.7,VALID,0,VALID,68.6717,VALID,252.379,VALID,25.2183,VALID,65,VALID,1.63203,
2015-03-29, 10:21:04,VALID,918.673,VALID,0,VALID,70.0973,VALID,227.345,VALID,25.1598,VALID,59,VALID,0.518359,
2015-03-29, 10:22:04,VALID,918.674,VALID,0,VALID,69.7238,VALID,204.998,VALID,25.0231,VALID,45,VALID,2.28984,
2015-03-29, 10:23:04,VALID,918.694,VALID,0,VALID,71.3857,VALID,187.807,VALID,24.8474,VALID,63,VALID,2.14922,
2015-03-29, 10:24:04,VALID,918.714,VALID,0,VALID,70.6767,VALID,176.526,VALID,24.6521,VALID,73,VALID,2.35195,
2015-03-29, 10:25:04,VALID,918.714,VALID,0,VALID,72.2242,VALID,168.36,VALID,24.4941,VALID,57,VALID,1.3832,
2015-03-29, 10:26:04,VALID,918.696,VALID,0,VALID,73.383,VALID,162.236,VALID,24.4178,VALID,33,VALID,0.965625,
2015-03-29, 10:27:04,VALID,918.719,VALID,0,VALID,73.6956,VALID,157.724,VALID,24.4374,VALID,30,VALID,0.551953,
2015-03-29, 10:28:04,VALID,918.713,VALID,0,VALID,72.9256,VALID,154.823,VALID,24.3983,VALID,33,VALID,1.25352,
2015-03-29, 10:29:04,VALID,918.708,VALID,0,VALID,73.6193,VALID,152.781,VALID,24.3593,VALID,13,VALID,0,
2015-03-29, 10:30:04,VALID,918.688,VALID,0,VALID,72.3538,VALID,151.492,VALID,24.4374,VALID,40,VALID,0.15625,
2015-03-29, 10:31:04,VALID,918.69,VALID,0,VALID,74.8619,VALID,151.599,VALID,24.3788,VALID,81,VALID,0.489844,
2015-03-29, 10:32:04,VALID,918.67,VALID,0,VALID,74.9839,VALID,152.996,VALID,24.3398,VALID,68,VALID,0.00585938,
2015-03-29, 10:33:04,VALID,918.656,VALID,0,VALID,76.0131,VALID,156.434,VALID,24.2812,VALID,60,VALID,0,
2015-03-29, 10:34:04,VALID,918.663,VALID,0,VALID,75.2812,VALID,163.74,VALID,24.2226,VALID,86,VALID,0,
2015-03-29, 10:35:04,VALID,918.647,VALID,0,VALID,75.3346,VALID,173.947,VALID,24.2617,VALID,80,VALID,0,
2015-03-29, 10:36:04,VALID,918.627,VALID,0,VALID,76.3942,VALID,183.187,VALID,24.3007,VALID,48,VALID,0,
2015-03-29, 10:37:04,VALID,918.638,VALID,0,VALID,75.1211,VALID,191.03,VALID,24.3788,VALID,45,VALID,0,
2015-03-29, 10:38:04,VALID,918.619,VALID,0,VALID,75.7996,VALID,195.328,VALID,24.3983,VALID,45,VALID,0,
2015-03-29, 10:39:04,VALID,918.628,VALID,0,VALID,75.1364,VALID,198.121,VALID,24.3983,VALID,45,VALID,0,
2015-03-29, 10:40:04,VALID,918.605,VALID,0,VALID,75.1745,VALID,200.7,VALID,24.4374,VALID,45,VALID,0,
2015-03-29, 10:41:04,VALID,918.621,VALID,0,VALID,74.2826,VALID,201.56,VALID,24.5155,VALID,45,VALID,0,
2015-03-29, 10:42:04,VALID,918.585,VALID,0,VALID,74.5875,VALID,202.849,VALID,24.5564,VALID,45,VALID,0,
2015-03-29, 10:43:04,VALID,918.586,VALID,0,VALID,74.5646,VALID,208.221,VALID,24.574,VALID,45,VALID,0,
2015-03-29, 10:44:04,VALID,918.566,VALID,0,VALID,74.5189,VALID,218.32,VALID,24.654,VALID,45,VALID,0,
2015-03-29, 10:45:04,VALID,918.561,VALID,0,VALID,75.0373,VALID,228.312,VALID,24.7321,VALID,45,VALID,0,
2015-03-29, 10:46:04,VALID,918.574,VALID,0,VALID,75.7005,VALID,237.23,VALID,24.8492,VALID,45,VALID,0,
2015-03-29, 10:47:04,VALID,918.578,VALID,0,VALID,73.4592,VALID,244.106,VALID,24.9469,VALID,45,VALID,0,
2015-03-29, 10:48:04,VALID,918.571,VALID,0,VALID,72.918,VALID,250.445,VALID,24.9469,VALID,52,VALID,0,
2015-03-29, 10:49:04,VALID,918.585,VALID,0,VALID,74.5799,VALID,255.817,VALID,24.8492,VALID,109,VALID,0,
2015-03-29, 10:50:04,VALID,918.563,VALID,0,VALID,74.2292,VALID,259.255,VALID,24.8083,VALID,88,VALID,0,
2015-03-29, 10:51:04,VALID,918.574,VALID,0,VALID,73.4897,VALID,262.586,VALID,24.8669,VALID,106,VALID,0,
2015-03-29, 10:52:04,VALID,918.572,VALID,0,VALID,73.9319,VALID,265.487,VALID,24.7907,VALID,105,VALID,0,
2015-03-29, 10:53:04,VALID,918.549,VALID,0,VALID,74.3207,VALID,269.14,VALID,24.6912,VALID,99,VALID,0.363281,
2015-03-29, 10:54:04,VALID,918.571,VALID,0,VALID,72.8036,VALID,268.603,VALID,24.6149,VALID,67,VALID,0.123828,
2015-03-29, 10:55:04,VALID,918.561,VALID,0,VALID,75.2889,VALID,263.553,VALID,24.5564,VALID,65,VALID,0,
2015-03-29, 10:56:04,VALID,918.572,VALID,0,VALID,74.8619,VALID,255.28,VALID,24.5954,VALID,71,VALID,0.187109,
2015-03-29, 10:57:04,VALID,918.609,VALID,0,VALID,70.913,VALID,247.007,VALID,24.4783,VALID,118,VALID,1.33945,
2015-03-29, 10:58:04,VALID,918.633,VALID,0,VALID,73.0781,VALID,241.528,VALID,24.3611,VALID,101,VALID,1.17539,
2015-03-29, 10:59:04,VALID,918.605,VALID,0,VALID,74.5951,VALID,239.809,VALID,24.2421,VALID,91,VALID,0.253125,
2015-03-29, 11:00:04,VALID,918.633,VALID,0,VALID,73.909,VALID,240.024,VALID,24.244,VALID,125,VALID,0,
2015-03-29, 11:01:04,VALID,918.628,VALID,0,VALID,74.2292,VALID,241.957,VALID,24.2421,VALID,49,VALID,0.0433594,
2015-03-29, 11:02:04,VALID,918.616,VALID,0,VALID,73.3982,VALID,246.9,VALID,24.2635,VALID,158,VALID,0,
2015-03-29, 11:03:04,VALID,918.632,VALID,0,VALID,74.7781,VALID,254.313,VALID,24.3026,VALID,135,VALID,0.205859,
2015-03-29, 11:04:04,VALID,918.634,VALID,0,VALID,74.1835,VALID,261.727,VALID,24.2031,VALID,136,VALID,0,